カタログに戻る

FENGYUN 1C DEB

運用中PO
NORAD 32156·DEBRIS·🇨🇳 China

打ち上げ May 10, 1999 から Taiyuan Satellite Launch Center

Loading…

次のパス (今後24時間)

TLE

経年Source: Space-Track

元期: Sep 10, 2026, 08:05 UTC

1 32156U 99025CTA 26253.33685434  .00000364  00000-0  14794-3 0  9997
2 32156  99.3618  89.3088 0081309 355.4044   4.6381 14.32389657687086

AllMySatでFENGYUN 1C DEBをリアルタイム追跡

Download on the App Store